Location: Banff
(51.1667°N, 115.5667°W)
Time: 05:22:00
(UTC+00:00)

Explorer 7 - All Passes

Search period start: 27 November 2020 00:00
Search period end: 07 December 2020 00:00
Orbit: 484 x 678 km, 50.3° (Epoch: 26 November)

Date Brightness Start Highest point End Pass type
(mag) Time Alt. Az. Time Alt. Az. Time Alt. Az.
27 Nov - 09:11:30 10° SSE 09:13:45 14° SE 09:15:58 10° ESE night (unlit)
27 Nov - 10:49:21 10° SW 10:53:34 42° SSE 10:57:34 10° E visible
27 Nov - 12:29:33 10° W 12:33:54 79° S 12:37:59 10° E visible
27 Nov - 14:10:11 10° W 14:14:20 64° SSW 14:18:14 10° ESE visible
27 Nov - 15:51:06 10° W 15:54:20 24° SW 15:57:27 10° SSE daylight
28 Nov - 09:14:52 10° S 09:18:08 20° SE 09:21:18 10° E night (unlit)
28 Nov - 10:53:45 10° WSW 10:58:08 54° SSE 11:02:15 10° E visible
28 Nov - 12:34:12 10° W 12:38:33 81° S 12:42:37 10° E visible
28 Nov - 14:14:51 10° W 14:18:55 52° SSW 14:22:45 10° SE visible
28 Nov - 15:56:08 10° W 15:58:44 17° SW 16:01:15 10° S daylight
29 Nov - 09:18:43 10° SSW 09:22:34 27° SSE 09:26:15 10° E night (unlit)
29 Nov - 10:58:16 10° WSW 11:02:43 65° SSE 11:06:53 10° E visible
29 Nov - 12:38:50 10° W 12:43:11 79° S 12:47:14 10° E visible
29 Nov - 14:19:31 10° W 14:23:27 40° SSW 14:27:09 10° SE visible
29 Nov - 16:01:47 10° WSW 16:03:04 11° SW 16:04:18 10° SSW daylight
30 Nov - 07:46:25 10° SE 07:47:21 11° SE 07:48:18 10° ESE night (unlit)
30 Nov - 09:22:50 10° SW 09:27:03 36° SSE 09:31:03 10° E night (unlit)
30 Nov - 11:02:51 10° WSW 11:07:19 75° S 11:11:32 10° E visible
30 Nov - 12:43:29 10° W 12:47:48 72° S 12:51:51 10° ESE visible
30 Nov - 14:24:16 10° W 14:27:56 30° SSW 14:31:26 10° SSE visible
01 Dec - 07:48:53 10° S 07:51:42 16° SE 07:54:25 10° ESE night (unlit)
01 Dec - 09:27:09 10° SW 09:31:34 46° SSE 09:35:45 10° E night (unlit)
01 Dec - 11:07:27 10° W 11:11:57 80° S 11:16:09 10° E visible
01 Dec - 12:48:07 10° W 12:52:24 62° SSW 12:56:24 10° ESE visible
01 Dec - 14:29:07 10° W 14:32:22 22° SW 14:35:28 10° SSE visible
02 Dec - 07:52:27 10° SSW 07:56:05 22° SE 07:59:34 10° E night (unlit)
02 Dec - 09:31:35 10° WSW 09:36:08 58° SSE 09:40:24 10° E night (unlit)
02 Dec - 11:12:06 10° W 11:16:35 81° S 11:20:47 10° E visible
02 Dec - 12:52:46 10° W 12:56:58 50° SSW 13:00:53 10° SE visible
02 Dec - 14:34:13 10° W 14:36:43 16° SW 14:39:10 10° S visible
03 Dec - 07:56:24 10° SSW 08:00:30 30° SSE 08:04:26 10° E night (unlit)
03 Dec - 09:36:07 10° WSW 09:40:42 69° SSE 09:45:02 10° E night (unlit)
03 Dec - 11:16:44 10° W 11:21:13 78° S 11:25:24 10° ESE visible
03 Dec - 12:57:27 10° W 13:01:29 39° SSW 13:05:15 10° SE visible
03 Dec - 14:40:13 10° WSW 14:41:02 10° SW 14:41:49 10° SW visible
04 Dec - 06:23:16 10° SSE 06:25:14 12° SE 06:27:11 10° ESE night (unlit)
04 Dec - 08:00:35 10° SW 08:04:59 40° SSE 08:09:11 10° E night (unlit)
04 Dec - 09:40:42 10° WSW 09:45:19 77° S 09:49:40 10° E night (unlit)
04 Dec - 11:21:21 10° W 11:25:49 70° SSW 11:29:59 10° ESE visible
04 Dec - 13:02:12 10° W 13:05:56 29° SSW 13:09:27 10° SSE visible
05 Dec - 06:26:21 10° S 06:29:33 18° SE 06:32:42 10° E night (unlit)
05 Dec - 08:04:55 10° SW 08:09:30 50° SSE 08:13:51 10° E night (unlit)
05 Dec - 09:45:18 10° W 09:49:57 81° S 09:54:17 10° E night (unlit)
05 Dec - 11:25:59 10° W 11:30:24 59° SSW 11:34:31 10° ESE visible
05 Dec - 13:07:04 10° W 13:10:20 21° SW 13:13:26 10° SSE visible
06 Dec - 06:30:03 10° SSW 06:33:57 25° SE 06:37:44 10° E night (unlit)
06 Dec - 08:09:23 10° WSW 08:14:04 62° SSE 08:18:29 10° E night (unlit)
06 Dec - 09:49:56 10° W 09:54:33 81° S 09:58:54 10° E night (unlit)
06 Dec - 11:30:38 10° W 11:34:56 48° SSW 11:38:57 10° SE visible
06 Dec - 13:12:14 10° WSW 13:14:39 15° SW 13:17:01 10° S visible
